TimeMST,TemperatureF,Dew PointF,Humidity,Sea Level PressureIn,VisibilityMPH,Wind Direction,Wind SpeedMPH,Gust SpeedMPH,PrecipitationIn,Events,Conditions,WindDirDegrees,DateUTC
12:58 AM,47.5,37.8,69,29.80,10.0,SSE,16.1,-,N/A,,Clear,150,2013-02-20 07:58:00
1:58 AM,45.7,36.9,71,29.76,10.0,SSE,13.8,-,N/A,,Clear,160,2013-02-20 08:58:00
2:58 AM,45.5,36.0,69,29.74,10.0,SSE,12.7,-,N/A,,Clear,160,2013-02-20 09:58:00
3:58 AM,41.7,36.0,80,29.65,10.0,SSW,11.5,-,N/A,,Clear,200,2013-02-20 10:58:00
4:58 AM,41.7,37.6,85,29.62,10.0,South,15.0,-,N/A,,Clear,190,2013-02-20 11:58:00
5:58 AM,40.5,35.6,83,29.63,10.0,SSW,12.7,-,N/A,,Clear,210,2013-02-20 12:58:00
6:58 AM,39.9,36.0,86,29.64,10.0,SSW,13.8,-,N/A,,Clear,200,2013-02-20 13:58:00
7:58 AM,42.8,36.0,77,29.64,10.0,SSW,11.5,-,N/A,,Clear,200,2013-02-20 14:58:00
8:58 AM,48.0,37.0,66,29.62,10.0,SSW,12.7,-,N/A,,Clear,210,2013-02-20 15:58:00
9:58 AM,53.1,34.9,50,29.71,10.0,South,15.0,-,N/A,,Clear,180,2013-02-20 16:58:00
10:58 AM,56.8,25.2,30,29.68,10.0,South,16.1,24.2,N/A,,Clear,190,2013-02-20 17:58:00
12:58 PM,60.6,12.9,15,29.50,10.0,SSW,21.9,33.4,N/A,,Clear,210,2013-02-20 19:58:00
1:58 PM,61.5,13.3,15,29.47,7.0,SSW,35.7,43.7,N/A,,Clear,210,2013-02-20 20:58:00
2:26 PM,60.8,14.0,16,29.57,10.0,WSW,27.6,40.3,N/A,,Clear,250,2013-02-20 21:26:00
2:58 PM,59.4,16.2,19,29.46,10.0,SW,25.3,33.4,N/A,,Clear,230,2013-02-20 21:58:00
3:58 PM,57.4,16.9,21,29.47,6.0,West,20.7,29.9,N/A,,Haze,260,2013-02-20 22:58:00
4:58 PM,55.6,15.8,21,29.47,9.0,WSW,17.3,-,N/A,,Clear,250,2013-02-20 23:58:00
5:58 PM,53.1,17.4,25,29.49,7.0,West,17.3,-,N/A,,Clear,270,2013-02-21 00:58:00
6:58 PM,50.7,19.0,29,29.52,10.0,WSW,19.6,-,N/A,,Clear,250,2013-02-21 01:58:00
7:58 PM,45.7,27.1,48,29.57,9.0,SW,8.1,-,N/A,,Clear,230,2013-02-21 02:58:00
8:58 PM,40.3,30.9,69,29.60,10.0,West,24.2,33.4,N/A,,Partly Cloudy,260,2013-02-21 03:58:00
9:47 PM,41.0,24.8,53,29.68,10.0,South,12.7,-,N/A,,Clear,190,2013-02-21 04:47:00
9:58 PM,41.0,24.4,52,29.59,10.0,South,13.8,-,N/A,,Clear,170,2013-02-21 04:58:00
10:58 PM,40.5,21.0,46,29.55,10.0,South,18.4,29.9,N/A,,Clear,180,2013-02-21 05:58:00
11:20 PM,39.2,19.4,45,29.66,10.0,SW,23.0,27.6,N/A,,Clear,220,2013-02-21 06:20:00
11:58 PM,37.6,18.7,47,29.60,10.0,SW,25.3,32.2,N/A,,Clear,230,2013-02-21 06:58:00